This is the latest recevied weather packets stored in our database for station/object OM8AKX-12. If no packets are shown the sender has not sent any weather packets the latest 10 day(s).
| Time | Temp. | Humidity | Pressure | Rain* | Wind** | Luminosity | Snow |
|---|---|---|---|---|---|---|---|
| 1777672487 | 7.78° C | 74% | 1020 hPa | - | - | - | - |
| 1777671593 | 6.67° C | 76% | 1019.9 hPa | - | - | - | - |
| 1777670687 | 6.67° C | 74% | 1019.9 hPa | - | - | - | - |
| 1777669788 | 7.22° C | 69% | 1019.9 hPa | - | - | - | - |
| 1777667997 | 11.11° C | 53% | 1019.5 hPa | - | - | - | - |
| 1777667088 | 10.56° C | 55% | 1019.5 hPa | - | - | - | - |
| 1777665286 | 10° C | 58% | 1019.6 hPa | - | - | - | - |
| 1777664389 | 10.56° C | 56% | 1019.6 hPa | - | - | - | - |
| 1777663488 | 10.56° C | 56% | 1019.7 hPa | - | - | - | - |
| 1777662586 | 11.11° C | 54% | 1019.5 hPa | - | - | - | - |
| 1777661686 | 11.11° C | 53% | 1019.6 hPa | - | - | - | - |
| 1777660786 | 11.11° C | 54% | 1019.5 hPa | - | - | - | - |
| 1777659886 | 10.56° C | 54% | 1019.5 hPa | - | - | - | - |
| 1777658986 | 11.11° C | 53% | 1019.4 hPa | - | - | - | - |
| 1777657189 | 12.22° C | 50% | 1019.1 hPa | - | - | - | - |
| 1777655385 | 14.44° C | 40% | 1019 hPa | - | - | - | - |
| 1777653586 | 15.56° C | 37% | 1019 hPa | - | - | - | - |
| 1777651785 | 16.11° C | 36% | 1019 hPa | - | - | - | - |
| 1777650885 | 16.11° C | 34% | 1019 hPa | - | - | - | - |
| 1777649986 | 16.67° C | 34% | 1019.2 hPa | - | - | - | - |
| 1777648192 | 16.67° C | 33% | 1019.3 hPa | - | - | - | - |
| 1777646385 | 16.67° C | 33% | 1019.4 hPa | - | - | - | - |
| 1777645485 | 16.67° C | 33% | 1019.6 hPa | - | - | - | - |
| 1777644586 | 16.67° C | 33% | 1019.7 hPa | - | - | - | - |
| 1777643690 | 16.67° C | 33% | 1019.6 hPa | - | - | - | - |
* Rain since midnight (hover to see other rain measurements)
** Current wind speed in m/s (hover to see current wind gust speed)